This is the latest recevied weather packets stored in our database for station/object AC5CM. If no packets are shown the sender has not sent any weather packets the latest 10 day(s).
| Time | Temp. | Humidity | Pressure | Rain* | Wind** | Luminosity | Snow |
|---|---|---|---|---|---|---|---|
| 1777819943 | 23.89° C | 48% | 1023.7 hPa | 0 mm | - | - | - |
| 1777819640 | 23.89° C | 50% | 1023.9 hPa | 0 mm | - | - | - |
| 1777819338 | 23.89° C | 49% | 1023.7 hPa | 0 mm | - | - | - |
| 1777819034 | 23.89° C | 53% | 1023.6 hPa | 0 mm | - | - | - |
| 1777818732 | 23.89° C | 53% | 1023.5 hPa | 0 mm | - | - | - |
| 1777818428 | 23.89° C | 57% | 1023.9 hPa | 0 mm | - | - | - |
| 1777818125 | 23.33° C | 55% | 1023.6 hPa | 0 mm | - | - | - |
| 1777817821 | 22.78° C | 58% | 1023.4 hPa | 0 mm | - | - | - |
| 1777817519 | 22.78° C | 61% | 1023.4 hPa | 0 mm | - | - | - |
| 1777817215 | 22.22° C | 63% | 1023.4 hPa | 0 mm | - | - | - |
| 1777816913 | 21.67° C | 61% | 1023.6 hPa | 0 mm | - | - | - |
| 1777816609 | 21.11° C | 65% | 1023.4 hPa | 0 mm | - | - | - |
| 1777816306 | 21.11° C | 64% | 1023.4 hPa | 0 mm | - | - | - |
| 1777816004 | 21.67° C | 62% | 1023.3 hPa | 0 mm | - | - | - |
| 1777815701 | 21.11° C | 72% | 1023.4 hPa | 0 mm | - | - | - |
| 1777815398 | 20.56° C | 82% | 1023.3 hPa | 0 mm | - | - | - |
| 1777815096 | 19.44° C | 90% | 1023.3 hPa | 0 mm | - | - | - |
| 1777814792 | 18.33° C | 94% | 1023.2 hPa | 0 mm | - | - | - |
| 1777814489 | 17.22° C | 99% | 1023.2 hPa | 0 mm | - | - | - |
| 1777814186 | 16.11° C | 99% | 1023.3 hPa | 0 mm | - | - | - |
| 1777813883 | 16.11° C | 99% | 1023.2 hPa | 0 mm | - | - | - |
| 1777813580 | 16.67° C | 99% | 1023.3 hPa | 0 mm | - | - | - |
| 1777813278 | 15.56° C | 99% | 1023.1 hPa | 0 mm | - | - | - |
| 1777812975 | 13.89° C | 99% | 1023.3 hPa | 0 mm | - | - | - |
| 1777812672 | 13.33° C | 99% | 1023 hPa | 0 mm | - | - | - |
* Rain latest hour (hover to see other rain measurements)
** Current wind speed in m/s (hover to see current wind gust speed)